Date_and_time,latitude,longitude,wind_speed,RelWindDirFrom,WindDirFrom,air_pressure,air_temperature,relative_humidity,Temp,platform_speed_wrt_ground,air_pressure_at_mean_sea_level,platform_orientation
2019-01-19 00:00,50.6304533333333,-96.9807716666667,4.9,5.7,175,1006.25,-27.7,65,0.32,0.0,1037.62,360.0
2019-01-19 00:10,50.6304533333333,-96.98077,4.7,5.3,176,1006.31,-28.1,65,0.33,0.0,1037.76,360.0
2019-01-19 00:20,50.6304533333333,-96.9807666666667,3.2,4.1,190,1006.29,-28.3,65,0.33,0.0,1037.81,360.0
2019-01-19 00:30,50.6304516666667,-96.9807666666667,4.0,5.9,210,1006.23,-28.2,65,0.33,0.0,1037.81,360.0
2019-01-19 00:40,50.6304516666667,-96.9807666666667,4.9,5.9,217,1006.16,-28.2,64,0.33,0.0,1037.75,360.0
2019-01-19 00:50,50.63045,-96.9807683333333,4.4,5.6,220,1006.12,-28.2,64,0.33,0.0,1037.72,360.0
2019-01-19 01:00,50.6304266666667,-96.980715,4.4,5.5,220,1006.14,-28.2,64,0.33,0.0,1037.75,140.5
2019-01-19 01:10,50.6304483333333,-96.98075,4.4,5.8,216,1006.10,-28.1,64,0.33,0.0,1037.71,140.5
2019-01-19 01:20,50.6304533333333,-96.9807533333333,4.0,4.9,212,1006.03,-28.1,64,0.34,0.0,1037.65,140.5
2019-01-19 01:30,50.6304533333333,-96.9807616666667,3.5,4.5,222,1006.07,-28.1,64,0.33,0.0,1037.69,140.5
2019-01-19 01:40,50.630455,-96.9807633333333,3.8,4.9,228,1006.08,-28.2,64,0.34,0.0,1037.73,140.5
2019-01-19 01:50,50.6304533333333,-96.980765,3.8,4.9,245,1006.06,-28.1,64,0.34,0.0,1037.71,140.5
2019-01-19 02:00,50.6304716666667,-96.9807833333333,4.2,5.3,249,1005.99,-28.0,64,0.34,0.0,1037.66,317.0
2019-01-19 02:10,50.6304466666667,-96.9807616666667,4.6,5.9,244,1006.09,-28.0,64,0.34,0.0,1037.78,317.0
2019-01-19 02:20,50.6304533333333,-96.9807566666667,4.3,5.5,241,1006.15,-28.5,64,0.34,0.0,1037.87,317.0
2019-01-19 02:30,50.6304483333333,-96.98076,4.6,6.5,249,1006.16,-28.3,65,0.33,0.0,1037.87,317.0
2019-01-19 02:40,50.6304483333333,-96.9807666666667,4.3,5.8,246,1006.08,-28.2,65,0.33,0.0,1037.78,317.0
2019-01-19 02:50,50.6304483333333,-96.9807666666667,4.4,5.6,244,1005.95,-28.3,65,0.33,0.0,1037.64,317.0
2019-01-19 03:00,50.6304483333333,-96.9807683333333,5.0,5.9,235,1005.72,-28.4,65,0.34,0.0,1037.42,131.7
2019-01-19 03:10,50.6304416666667,-96.980775,4.6,5.9,235,1005.61,-28.5,66,0.34,0.0,1037.30,131.7
2019-01-19 03:20,50.6304483333333,-96.9807733333333,4.4,6.0,235,1005.58,-28.5,67,0.34,0.0,1037.27,131.7
2019-01-19 03:30,50.6304533333333,-96.980775,4.0,5.8,239,1005.69,-28.6,67,0.34,0.0,1037.40,131.7
2019-01-19 03:40,50.6304516666667,-96.9807716666667,4.6,5.8,241,1005.68,-28.6,67,0.34,0.0,1037.38,131.7
2019-01-19 03:50,50.6304533333333,-96.9807716666667,5.0,6.2,242,1005.68,-28.8,67,0.34,0.0,1037.38,131.7
2019-01-19 04:00,50.6304533333333,-96.9807683333333,4.9,6.2,249,1005.67,-28.8,67,0.34,0.0,1037.38,311.3
2019-01-19 04:10,50.630455,-96.9807683333333,4.7,6.4,256,1005.71,-28.5,68,0.34,0.0,1037.43,311.3
2019-01-19 04:20,50.630455,-96.9807683333333,4.4,5.6,251,1005.77,-28.4,68,0.33,0.0,1037.47,311.3
2019-01-19 04:30,50.630455,-96.9807666666667,5.1,6.5,242,1005.86,-28.7,68,0.33,0.0,1037.58,311.3
2019-01-19 04:40,50.6304466666667,-96.9807666666667,4.6,5.7,242,1005.98,-28.8,68,0.33,0.0,1037.71,311.3
2019-01-19 04:50,50.6304233333333,-96.98074,4.6,5.8,239,1006.10,-28.8,68,0.33,0.0,1037.85,311.3
2019-01-19 05:00,50.6304433333333,-96.980745,4.7,6.4,233,1006.15,-28.7,69,0.33,0.0,1037.89,148.9
2019-01-19 05:10,50.6304466666667,-96.9807533333333,4.7,6.4,236,1006.26,-28.5,69,0.32,0.0,1038.00,148.9
2019-01-19 05:20,50.6304516666667,-96.980755,5.2,6.9,236,1006.28,-28.5,69,0.32,0.0,1038.02,148.9
2019-01-19 05:30,50.63045,-96.980755,4.9,6.4,231,1006.36,-28.6,69,0.32,0.0,1038.12,148.9
2019-01-19 05:40,50.63045,-96.980755,5.0,6.3,238,1006.36,-28.7,69,0.32,0.0,1038.13,148.9
2019-01-19 05:50,50.6304516666667,-96.980755,5.2,6.8,241,1006.42,-28.5,69,0.32,0.0,1038.18,148.9
2019-01-19 06:00,50.6304616666667,-96.9807683333333,5.2,6.8,241,1006.35,-28.3,69,0.31,0.0,1038.08,360.0
2019-01-19 06:10,50.6304566666667,-96.98078,5.4,6.7,239,1006.32,-28.2,69,0.31,0.0,1038.04,360.0
2019-01-19 06:20,50.63046,-96.9808083333333,5.5,6.9,241,1006.27,-28.2,69,0.30,0.0,1038.00,360.0
2019-01-19 06:30,50.63046,-96.9807633333333,5.6,7.3,240,1006.22,-28.2,68,0.30,0.0,1037.95,360.0
2019-01-19 06:40,50.6304566666667,-96.9807583333333,6.0,8.1,238,1006.20,-28.3,68,0.30,0.0,1037.94,360.0
2019-01-19 06:50,50.6304583333333,-96.9807566666667,5.9,7.7,242,1006.12,-28.3,68,0.29,0.0,1037.85,360.0
2019-01-19 07:00,50.6304533333333,-96.9807583333333,5.8,7.3,240,1005.94,-28.4,68,0.30,0.0,1037.66,90.0
2019-01-19 07:10,50.6304566666667,-96.9807616666667,5.4,6.9,240,1005.80,-28.4,68,0.30,0.0,1037.51,90.0
2019-01-19 07:20,50.63046,-96.9807616666667,5.2,6.5,243,1005.63,-28.4,68,0.30,0.0,1037.35,90.0
2019-01-19 07:30,50.6304566666667,-96.9807633333333,5.1,6.4,240,1005.53,-28.4,68,0.30,0.0,1037.25,90.0
2019-01-19 07:40,50.6304566666667,-96.9807733333333,3.9,5.3,234,1005.52,-28.6,68,0.30,0.0,1037.24,90.0
2019-01-19 07:50,50.6304583333333,-96.980775,2.1,3.4,215,1005.49,-28.9,69,0.29,0.0,1037.21,90.0
2019-01-19 08:00,50.6304566666667,-96.9807716666667,2.7,3.4,194,1005.44,-29.3,69,0.30,0.0,1037.18,302.3
2019-01-19 08:10,50.630445,-96.9807516666667,2.6,3.1,191,1005.45,-29.5,69,0.29,0.0,1037.20,302.3
2019-01-19 08:20,50.630445,-96.980765,2.4,2.7,201,1005.46,-29.8,69,0.29,0.0,1037.24,302.3
2019-01-19 08:30,50.63045,-96.980785,2.6,3.3,192,1005.42,-30.0,70,0.28,0.0,1037.22,302.3
2019-01-19 08:40,50.6304533333333,-96.980775,1.8,2.5,183,1005.39,-29.9,70,0.29,0.0,1037.18,302.3
2019-01-19 08:50,50.6304533333333,-96.980775,2.9,4.0,161,1005.37,-30.1,70,0.30,0.0,1037.18,302.3
2019-01-19 09:00,50.63046,-96.9807666666667,3.8,4.5,172,1005.30,-30.6,70,0.29,0.0,1037.13,360.0
2019-01-19 09:10,50.6304516666667,-96.9807616666667,4.1,5.0,175,1005.33,-30.9,70,0.29,0.0,1037.19,360.0
2019-01-19 09:20,50.6304516666667,-96.9807666666667,4.2,4.5,171,1005.32,-30.9,70,0.29,0.0,1037.18,360.0
2019-01-19 09:30,50.6304516666667,-96.9807666666667,3.8,4.3,173,1005.14,-30.9,70,0.29,0.0,1037.00,360.0
2019-01-19 09:40,50.6304533333333,-96.9807683333333,3.6,4.3,180,1004.97,-30.9,70,0.28,0.0,1036.85,360.0
2019-01-19 09:50,50.630455,-96.98077,4.1,4.6,184,1004.87,-30.9,70,0.28,0.0,1036.77,360.0
2019-01-19 10:00,50.6304533333333,-96.9807666666667,4.0,4.5,188,1004.78,-30.8,70,0.27,0.0,1036.69,270.0
2019-01-19 10:10,50.6304583333333,-96.9807766666667,3.2,3.8,187,1004.63,-30.9,70,0.27,0.0,1036.55,270.0
2019-01-19 10:20,50.6304566666667,-96.9807683333333,2.7,3.4,181,1004.60,-31.1,70,0.27,0.0,1036.56,270.0
2019-01-19 10:30,50.630455,-96.9807633333333,1.9,2.5,172,1004.58,-31.2,69,0.27,0.0,1036.54,270.0
2019-01-19 10:40,50.6304516666667,-96.980765,2.2,2.7,188,1004.60,-31.4,69,0.27,0.0,1036.58,270.0
2019-01-19 10:50,50.6304483333333,-96.9807733333333,2.0,2.3,208,1004.63,-31.3,69,0.27,0.0,1036.63,270.0
2019-01-19 11:00,50.63045,-96.9807683333333,2.1,2.5,198,1004.50,-31.4,69,0.26,0.0,1036.53,90.0
2019-01-19 11:10,50.6304533333333,-96.9807683333333,2.8,3.5,187,1004.49,-31.9,68,0.26,0.0,1036.55,90.0
2019-01-19 11:20,50.6304533333333,-96.9807666666667,2.4,3.0,192,1004.52,-32.3,68,0.27,0.0,1036.62,90.0
2019-01-19 11:30,50.6304816666667,-96.9807883333333,1.6,2.1,194,1004.42,-32.2,68,0.27,0.0,1036.51,90.0
2019-01-19 11:40,50.6304616666667,-96.9807633333333,0.9,1.8,197,1004.36,-32.2,68,0.27,0.0,1036.44,90.0
2019-01-19 11:50,50.63046,-96.9807633333333,0.3,1.4,197,1004.38,-32.3,68,0.27,0.0,1036.46,90.0
2019-01-19 12:00,50.6304566666667,-96.980765,1.5,1.9,197,1004.39,-32.3,68,0.27,0.0,1036.48,360.0
2019-01-19 12:10,50.630445,-96.98076,1.8,2.3,197,1004.38,-32.6,68,0.27,0.0,1036.50,360.0
2019-01-19 12:20,50.6304533333333,-96.9807633333333,1.1,2.4,197,1004.30,-32.7,68,0.27,0.0,1036.44,360.0
2019-01-19 12:30,50.630455,-96.9807666666667,1.6,2.2,313,1004.41,-31.9,69,0.27,0.0,1036.51,360.0
2019-01-19 12:40,50.630455,-96.9807683333333,1.0,2.1,327,1004.42,-31.4,69,0.27,0.0,1036.48,360.0
2019-01-19 12:50,50.6304566666667,-96.980765,0.1,1.9,220,1004.50,-31.8,68,0.27,0.0,1036.60,360.0
2019-01-19 13:00,50.630455,-96.9807533333333,2.1,2.5,203,1004.51,-32.7,67,0.27,0.0,1036.70,90.0
2019-01-19 13:10,50.6304683333333,-96.98077,1.4,2.6,246,1004.55,-32.7,68,0.27,0.0,1036.77,90.0
2019-01-19 13:20,50.630465,-96.9807883333333,1.1,1.6,224,1004.65,-32.9,67,0.26,0.0,1036.87,90.0
2019-01-19 13:30,50.63045,-96.9807733333333,1.3,2.2,253,1004.70,-33.2,66,0.26,0.0,1036.95,90.0
2019-01-19 13:40,50.6304466666667,-96.9807666666667,1.9,2.8,234,1004.81,-33.3,67,0.26,0.0,1037.07,90.0
2019-01-19 13:50,50.6304483333333,-96.9807666666667,2.1,2.9,257,1004.91,-33.5,66,0.26,0.0,1037.19,90.0
2019-01-19 14:00,50.63045,-96.9807683333333,1.0,2.4,271,1005.00,-33.1,67,0.26,0.0,1037.28,0.0
2019-01-19 14:10,50.63045,-96.98077,0.3,1.2,277,1005.05,-33.2,66,0.26,0.0,1037.34,0.0
2019-01-19 14:20,50.6304516666667,-96.98077,2.2,4.2,299,1005.03,-33.0,67,0.26,0.0,1037.26,0.0
2019-01-19 14:30,50.6304516666667,-96.98077,3.4,4.2,311,1005.06,-31.6,68,0.26,0.0,1037.16,0.0
2019-01-19 14:40,50.6304516666667,-96.9807683333333,3.5,4.6,309,1005.03,-31.0,68,0.26,0.0,1037.11,0.0
2019-01-19 14:50,50.6304516666667,-96.9807683333333,3.2,4.5,334,1004.98,-30.7,67,0.26,0.0,1037.10,0.0
2019-01-19 15:00,50.6304516666667,-96.9807716666667,3.9,5.2,343,1005.01,-30.6,67,0.26,0.0,1037.13,270.0
2019-01-19 15:10,50.6304533333333,-96.9807716666667,4.7,6.4,337,1005.01,-30.2,67,0.25,0.0,1037.11,270.0
2019-01-19 15:20,50.6304533333333,-96.9807733333333,3.6,5.1,331,1005.12,-29.8,67,0.24,0.0,1037.22,270.0
2019-01-19 15:30,50.6304516666667,-96.9807716666667,3.2,5.0,328,1005.06,-29.3,66,0.23,0.0,1037.14,270.0
2019-01-19 15:40,50.630455,-96.9807716666667,2.7,4.7,319,1005.07,-28.8,66,0.22,0.0,1037.13,270.0
2019-01-19 15:50,50.630455,-96.9807716666667,3.3,4.8,327,1005.09,-28.4,66,0.21,0.0,1037.09,270.0
2019-01-19 16:00,50.6304566666667,-96.98077,4.8,7.0,351,1005.12,-28.0,66,0.21,0.0,1037.10,270.0
2019-01-19 16:10,50.6304566666667,-96.98077,6.0,8.6,355,1005.10,-27.9,66,0.21,0.0,1037.06,270.0
2019-01-19 16:20,50.6304566666667,-96.9807683333333,6.0,8.1,357,1005.15,-27.8,66,0.20,0.0,1037.02,270.0
2019-01-19 16:30,50.6304566666667,-96.9807683333333,6.4,8.4,352,1005.18,-27.6,65,0.21,0.0,1036.99,270.0
2019-01-19 16:40,50.6304566666667,-96.9807666666667,6.5,9.2,351,1005.22,-27.4,65,0.21,0.0,1036.99,270.0
2019-01-19 16:50,50.6304566666667,-96.980765,5.8,8.5,357,1005.31,-27.2,65,0.22,0.0,1037.07,270.0
2019-01-19 17:00,50.6304516666667,-96.9807666666667,5.0,6.2,5,1005.44,-26.9,65,0.23,0.0,1037.15,0.0
2019-01-19 17:10,50.6304466666667,-96.980765,5.4,6.9,9,1005.39,-26.8,65,0.24,0.0,1037.07,0.0
2019-01-19 17:20,50.63045,-96.980765,5.3,6.7,20,1005.42,-26.8,65,0.26,0.0,1037.07,0.0
2019-01-19 17:30,50.6304533333333,-96.9807666666667,4.9,6.4,15,1005.47,-26.8,64,0.28,0.0,1037.09,0.0
2019-01-19 17:40,50.63045,-96.980765,4.0,4.9,20,1005.56,-26.5,64,0.27,0.0,1037.14,0.0
2019-01-19 17:50,50.6304516666667,-96.9807666666667,4.3,5.0,24,1005.55,-26.3,63,0.27,0.0,1037.09,0.0
2019-01-19 18:00,50.6304516666667,-96.9807666666667,4.7,5.9,22,1005.54,-26.2,63,0.26,0.0,1037.06,90.0
2019-01-19 18:10,50.6304516666667,-96.9807683333333,4.9,5.9,23,1005.54,-26.0,64,0.26,0.0,1037.04,90.0
2019-01-19 18:20,50.6304516666667,-96.9807683333333,4.9,5.9,24,1005.52,-25.8,63,0.26,0.0,1037.00,90.0
2019-01-19 18:30,50.6304516666667,-96.9807683333333,4.8,5.9,25,1005.50,-25.6,63,0.27,0.0,1036.95,90.0
2019-01-19 18:40,50.6304516666667,-96.9807683333333,5.6,6.9,25,1005.43,-25.6,62,0.27,0.0,1036.87,90.0
2019-01-19 18:50,50.6304516666667,-96.9807683333333,6.0,6.9,26,1005.34,-25.7,63,0.28,0.0,1036.77,90.0
2019-01-19 19:00,50.6304383333333,-96.9807716666667,5.9,6.8,21,1005.21,-25.6,63,0.28,0.0,1036.62,221.3
2019-01-19 19:10,50.6304416666667,-96.98078,6.5,7.6,20,1005.08,-25.6,63,0.28,0.0,1036.48,221.3
2019-01-19 19:20,50.6304516666667,-96.98078,8.0,9.8,19,1005.04,-25.7,63,0.27,0.0,1036.44,221.3
2019-01-19 19:30,50.6304483333333,-96.9807733333333,8.4,9.7,16,1005.01,-25.9,63,0.27,0.0,1036.41,221.3
2019-01-19 19:40,50.63045,-96.9807733333333,8.2,10.4,16,1005.03,-25.9,63,0.27,0.0,1036.41,221.3
2019-01-19 19:50,50.63045,-96.980775,8.7,10.1,15,1005.05,-25.8,63,0.28,0.0,1036.43,221.3
2019-01-19 20:00,50.63045,-96.980775,8.7,10.4,13,1005.03,-25.7,62,0.28,0.0,1036.38,270.0
2019-01-19 20:10,50.63045,-96.980775,8.6,10.2,13,1005.10,-25.7,62,0.28,0.0,1036.44,270.0
2019-01-19 20:20,50.6304483333333,-96.9807766666667,7.8,9.5,9,1005.10,-25.7,62,0.28,0.0,1036.43,270.0
2019-01-19 20:30,50.6304483333333,-96.9807766666667,8.6,10.5,16,1005.06,-25.7,62,0.28,0.0,1036.39,270.0
2019-01-19 20:40,50.6304483333333,-96.9807766666667,8.9,10.7,12,1005.06,-25.6,62,0.28,0.0,1036.39,270.0
2019-01-19 20:50,50.6304483333333,-96.9807766666667,8.8,10.3,12,1005.18,-25.6,61,0.28,0.0,1036.50,270.0
2019-01-19 21:00,50.6304483333333,-96.9807766666667,9.2,10.7,16,1005.20,-25.6,62,0.29,0.0,1036.53,192.6
2019-01-19 21:10,50.6304483333333,-96.9807766666667,8.9,10.5,17,1005.23,-25.7,62,0.29,0.0,1036.56,192.6
2019-01-19 21:20,50.6304483333333,-96.980775,7.6,9.3,15,1005.35,-25.6,61,0.29,0.0,1036.70,192.6
2019-01-19 21:30,50.6304483333333,-96.980775,7.0,8.4,21,1005.49,-25.6,62,0.29,0.0,1036.84,192.6
2019-01-19 21:40,50.630435,-96.9807766666667,5.3,6.9,18,1005.67,-25.6,62,0.29,0.0,1037.02,192.6
2019-01-19 21:50,50.6304433333333,-96.980755,5.6,6.5,22,1005.69,-25.6,62,0.29,0.0,1037.04,192.6
2019-01-19 22:00,50.630445,-96.9807583333333,4.9,6.3,16,1005.81,-25.7,62,0.30,0.0,1037.17,90.0
2019-01-19 22:10,50.6304516666667,-96.9807783333333,4.5,5.4,8,1006.02,-25.7,61,0.30,0.0,1037.38,90.0
2019-01-19 22:20,50.63045,-96.980765,4.4,5.6,1,1006.09,-25.9,62,0.30,0.0,1037.48,90.0
2019-01-19 22:30,50.63045,-96.98077,4.8,6.4,351,1006.11,-26.0,61,0.30,0.0,1037.49,90.0
2019-01-19 22:40,50.6304483333333,-96.98077,5.2,6.7,349,1006.09,-26.0,60,0.31,0.0,1037.47,90.0
2019-01-19 22:50,50.6304616666667,-96.9807666666667,6.6,8.0,347,1005.95,-26.3,61,0.32,0.0,1037.35,90.0
2019-01-19 23:00,50.6304583333333,-96.9807633333333,5.8,7.4,344,1005.93,-26.4,60,0.31,0.0,1037.34,48.3
2019-01-19 23:10,50.6304583333333,-96.980765,7.0,8.7,352,1005.80,-26.6,60,0.32,0.0,1037.21,48.3
2019-01-19 23:20,50.63046,-96.9807683333333,6.3,8.9,351,1005.72,-26.8,61,0.32,0.0,1037.13,48.3
2019-01-19 23:30,50.6304616666667,-96.9807683333333,5.3,6.8,353,1005.72,-26.9,61,0.32,0.0,1037.14,48.3
2019-01-19 23:40,50.63046,-96.9807683333333,5.9,7.3,349,1005.72,-26.9,61,0.32,0.0,1037.15,48.3
